Regional Weather Roundup
Issued by NWS Newport/Morehead, NC

Home | Current Version | Previous Version | Text Only | Print | Product List | Glossary On
Versions: 1 2 3 4 5 6 7 8 9 10 11 12 13 14 15 16 17 18 19 20 21 22 23 24 25 26 27 28 29 30 31 32 33 34 35 36 37 38 39 40 41 42 43 44 45 46 47 48 49 50
000
ASUS42 KMHX 310222
RWRMHX
WEATHER ROUNDUP FOR EASTERN NORTH CAROLINA
NATIONAL WEATHER SERVICE NEWPORT/MOREHEAD CITY NC
1000 PM EDT SAT AUG 30 2014

NOTE: "FAIR" INDICATES FEW OR NO CLOUDS BELOW 12,000 FEET
WITH NO SIGNIFICANT WEATHER AND/OR OBSTRUCTIONS TO VISIBILITY

NCZ015>017-031-032-045>047-102-103-310300-
NORTH COAST

CITY           SKY/WX    TMP DP  RH WIND       PRES   REMARKS
EDENTON        CLEAR     78  74  86 S8        30.17S
ELIZABETH CITY CLEAR     78  75  90 SE5       30.17R
KITTY HAWK     CLEAR     77  74  92 SE3       30.18R
MANTEO         MOCLDY    78  74  86 S7        30.19R

$$

NCZ045>047-081-094-103-104-310300-
CENTRAL COAST

CITY           SKY/WX    TMP DP  RH WIND       PRES   REMARKS
FRISCO         NOT AVBL
SWANQUARTER      N/A     81 N/A N/A S10       30.15S

$$

NCZ095-097-098-100-101-310300-
SOUTHERN COAST

CITY           SKY/WX    TMP DP  RH WIND       PRES   REMARKS
BEAUFORT       CLEAR     80  73  79 SE5       30.18R
CEDAR ISLAND     N/A     79 N/A N/A S3        30.21S
JACKSONVILLE   CLEAR     78  73  84 CALM      30.17R
NEWPORT        NOT AVBL
PINEY ISLAND   PTCLDY    80  76  87 S5        30.17R
WILMINGTON     CLEAR     77  71  82 CALM      30.17R


$$

NCZ011>013-027>030-043-044-078>080-089-090>093-098-310300-
COASTAL PLAIN

CITY           SKY/WX    TMP DP  RH WIND       PRES   REMARKS
AHOSKIE        CLEAR     74  72  93 CALM      30.17S
CLINTON        CLEAR     75  73  94 CALM      30.17R
ELIZABETHTOWN  CLEAR     77  74  90 CALM      30.17R
GOLDSBORO      CLOUDY    78  78  98 SE7       30.15R
GREENVILLE     CLEAR     79  73  83 S6        30.18R
HAVELOCK       CLEAR     76  73  91 SE5       30.19R
KENANSVILLE    CLEAR     73  71  91 CALM      30.18R
KINSTON        CLEAR     78  72  81 S8        30.18R
NEW BERN       CLEAR     76  72  87 CALM      30.19R
RICHLANDS      PTCLDY    73  70  88 CALM      30.19R
ROANOKE RAPIDS NOT AVBL
ROCKY MOUNT    MOCLDY    75  72  90 CALM      30.16R
WASHINGTON     CLEAR     78  73  84 S5        30.18R
WHITEVILLE     CLEAR     77  73  85 CALM      30.17R

$$

AMZ130-135-150-152-154-156-158-170-250-252-270-ANZ085-086-088-633-658-670-310300-
MARINE OBSERVATIONS

STATION/POSITION TIME  TEMP    WIND        PRES    WAVE   SWELL
                       AIR SEA DIR/SP/G            HT/PER HT/PER
                 (UTC) (F)     (DEG/KT/KT) (MB)    (FT/S) (FT/S)
CHESAPEAKE LIGHT 0200   76     140/ 15/ 15 1022.1
BUOY 44014       0200   78 78  140/  8/  8 1021.7    2/ 8   2/ 8
DUCK             0200   78 78  150/ 11/ 12 1021.1
2E DUCK          0200                        N/A     2/ 9
OREGON INLET     0200   78 79  130/  4/  7 1021.9
BUOY 44095       0200      77                N/A     2/ 8
20E OREGON INLET NOT AVBL
HATTERAS CG      0200   81 83  170/  6/ 10 1022.4
DIAMOND BUOY     0200   80     140/ 12/ 14 1021.8    3/ 8   3/ 8
CAPE LOOKOUT     0200   81     150/  7/  8 1021.8
BEAUFORT LAB     0200   80 82  160/  5/  8 1021.5
30 SE NEW RIVER  0200   82 83  140/ 10/ 12 1021.8    2/ 8   2/ 8
5 SE WRIGHTSVILL 0200   78 82  160/ 10/ 12   N/A
BUOY 41002       0132   81 83  140/ 12/ 14 1022.1    3/10   3/10
BUOY 41004       0200   84 83  120/ 12/ 14 1020.0    3/ 8   2/ 8

$$


USA.gov is the U.S. government's official web portal to all federal, state and local government web resources and services.